| time (UTC) | temp F | wind direction | speed knots | gust knots | rain 1hr in | rain 24hr in | rain mn in | humidity % | barometer mb |
| 20260504081522 | 0 | 0.0 | 0.0 | 0.00 | 0.00 | 0.00 | 1012.7 | ||
| 20260504044537 | 50 | 266 | 2.6 | 9.6 | 0.00 | 0.00 | 0.00 | 49 | 1012.2 |
| 20260504043028 | 49 | 91 | 3.5 | 10.4 | 0.00 | 0.00 | 0.00 | 49 | 1012.2 |
| 20260504041524 | 50 | 120 | 1.7 | 7.8 | 0.00 | 0.00 | 0.00 | 48 | 1012.2 |
| 20260504040018 | 50 | 219 | 2.6 | 7.0 | 0.00 | 0.00 | 0.00 | 46 | 1012.1 |
| 20260504034519 | 51 | 173 | 2.6 | 8.7 | 0.00 | 0.00 | 0.00 | 46 | 1012.1 |
| 20260504033015 | 50 | 269 | 2.6 | 7.0 | 0.00 | 0.00 | 0.00 | 47 | 1012.1 |
| 20260504031511 | 49 | 152 | 4.3 | 8.7 | 0.00 | 0.00 | 0.00 | 48 | 1012.1 |
| 20260504030030 | 50 | 135 | 2.6 | 5.2 | 0.00 | 0.00 | 0.00 | 48 | 1012.1 |
| 20260504024508 | 50 | 215 | 2.6 | 4.3 | 0.00 | 0.00 | 0.00 | 47 | 1012.2 |
| 20260504023007 | 51 | 153 | 2.6 | 5.2 | 0.00 | 0.00 | 0.00 | 47 | 1012.3 |
| 20260504021505 | 51 | 301 | 1.7 | 7.8 | 0.00 | 0.00 | 0.00 | 46 | 1012.2 |
| 20260504020003 | 51 | 162 | 0.0 | 5.2 | 0.00 | 0.00 | 0.00 | 46 | 1012.3 |
| 20260504014600 | 51 | 229 | 0.0 | 4.3 | 0.00 | 0.00 | 0.00 | 46 | 1012.2 |
| 20260504013109 | 51 | 291 | 1.7 | 4.3 | 0.00 | 0.00 | 0.00 | 46 | 1012.1 |
| 20260504011557 | 51 | 359 | 4.3 | 7.8 | 0.00 | 0.00 | 0.00 | 46 | 1012.1 |
| 20260504010109 | 51 | 325 | 2.6 | 9.6 | 0.00 | 0.00 | 0.00 | 45 | 1011.9 |
| 20260504004610 | 51 | 340 | 3.5 | 6.1 | 0.00 | 0.00 | 0.00 | 44 | 1011.8 |
| 20260504003048 | 52 | 281 | 3.5 | 15.6 | 0.00 | 0.00 | 0.00 | 43 | 1011.6 |
| 20260504001546 | 52 | 336 | 5.2 | 10.4 | 0.00 | 0.00 | 0.00 | 42 | 1011.3 |
| 20260504000044 | 53 | 9 | 6.1 | 11.3 | 0.00 | 0.00 | 0.00 | 40 | 1011.2 |
| 20260503234545 | 53 | 348 | 5.2 | 11.3 | 0.00 | 0.00 | 0.00 | 39 | 1011.1 |
| 20260503233041 | 53 | 328 | 4.3 | 10.4 | 0.00 | 0.00 | 0.00 | 40 | 1010.9 |
| 20260503231537 | 53 | 314 | 2.6 | 13.0 | 0.00 | 0.00 | 0.00 | 39 | 1010.6 |
| 20260503230039 | 53 | 330 | 5.2 | 13.0 | 0.00 | 0.00 | 0.00 | 38 | 1010.6 |
| 20260503224534 | 53 | 340 | 6.1 | 14.8 | 0.00 | 0.00 | 0.00 | 37 | 1010.5 |
| 20260503223032 | 54 | 8 | 8.7 | 17.4 | 0.00 | 0.00 | 0.00 | 36 | 1010.3 |
| 20260503221539 | 55 | 360 | 7.0 | 13.0 | 0.00 | 0.00 | 0.00 | 34 | 1010.2 |
| 20260503220028 | 54 | 315 | 7.0 | 14.8 | 0.00 | 0.00 | 0.00 | 34 | 1010.2 |
| 20260503214527 | 54 | 315 | 9.6 | 16.5 | 0.00 | 0.00 | 0.00 | 32 | 1010.1 |
| 20260503213122 | 54 | 299 | 6.1 | 22.6 | 0.00 | 0.00 | 0.00 | 31 | 1010.1 |
| 20260503211520 | 54 | 29 | 11.3 | 21.7 | 0.00 | 0.00 | 0.00 | 31 | 1010.1 |
| 20260503210016 | 54 | 335 | 8.7 | 24.3 | 0.00 | 0.00 | 0.00 | 31 | 1010.0 |
| 20260503204512 | 54 | 348 | 12.2 | 21.7 | 0.00 | 0.00 | 0.00 | 31 | 1010.1 |
| 20260503203014 | 53 | 349 | 11.3 | 24.3 | 0.00 | 0.00 | 0.00 | 33 | 1010.1 |
| 20260503201506 | 53 | 311 | 7.0 | 16.5 | 0.00 | 0.00 | 0.00 | 34 | 1010.2 |
| 20260503200003 | 52 | 315 | 4.3 | 14.8 | 0.00 | 0.00 | 0.00 | 38 | 1010.2 |
| 20260503194600 | 52 | 1 | 7.0 | 19.1 | 0.00 | 0.00 | 0.00 | 36 | 1010.5 |
| 20260503193100 | 51 | 112 | 10.4 | 19.1 | 0.00 | 0.00 | 0.00 | 37 | 1010.6 |
| 20260503191613 | 51 | 3 | 7.0 | 22.6 | 0.00 | 0.00 | 0.00 | 40 | 1010.5 |
| 20260503190051 | 51 | 359 | 11.3 | 19.1 | 0.00 | 0.00 | 0.00 | 39 | 1010.6 |
| 20260503184555 | 50 | 292 | 9.6 | 17.4 | 0.00 | 0.00 | 0.00 | 41 | 1011.0 |
| 20260503183100 | 49 | 334 | 7.8 | 20.0 | 0.00 | 0.00 | 0.00 | 42 | 1010.9 |
| 20260503181642 | 50 | 20 | 10.4 | 21.7 | 0.00 | 0.00 | 0.00 | 42 | 1010.9 |
| 20260503180042 | 49 | 5 | 9.6 | 21.7 | 0.00 | 0.00 | 0.00 | 44 | 1011.0 |
| 20260503174534 | 47 | 309 | 10.4 | 17.4 | 0.00 | 0.00 | 0.00 | 47 | 1011.1 |
| 20260503173046 | 47 | 320 | 7.0 | 23.5 | 0.00 | 0.00 | 0.00 | 47 | 1011.4 |
| 20260503171528 | 46 | 359 | 6.1 | 11.3 | 0.00 | 0.00 | 0.00 | 47 | 1011.4 |